DW8722 Weather Reports


Display with metric or nautical units.
time (UTC)temp
F
wind
direction
speed
MPH
gust
MPH
rain 1hr
in
rain 24hr
in
rain mn
in
humidity
%
barometer
mb
20260905004325 92 140 3.0 11.0 0.00 0.02 0.00 51 1010.7
20260905003326 93 124 5.0 11.0 0.00 0.02 0.00 50 1010.7
20260905002252 94 125 5.0 9.0 0.00 0.02 0.00 49 1010.6
20260904233941 97 161 3.0 10.0 0.00 0.02 0.00 45 1010.4
20260904232920 97 176 5.0 12.0 0.00 0.02 0.00 45 1010.4
20260904231923 97 168 7.0 12.0 0.00 0.02 0.00 45 1010.4
20260904230903 98 123 4.0 15.0 0.00 0.02 0.00 44 1010.3
20260904224757 98 136 5.0 11.0 0.00 0.02 0.00 44 1010.5
20260904223745 98 111 5.0 13.0 0.00 0.02 0.00 43 1010.5
20260904222713 99 118 7.0 13.0 0.00 0.02 0.00 43 1010.5
20260904221641 99 139 7.0 14.0 0.00 0.02 0.00 43 1010.5
20260904215517 99 178 6.0 16.0 0.00 0.02 0.00 42 1010.6
20260904214500 100 144 7.0 16.0 0.00 0.02 0.00 41 1010.9
20260904213514 100 215 7.0 14.0 0.00 0.02 0.00 42 1010.9
20260904212534 100 171 7.0 14.0 0.00 0.02 0.00 41 1010.9
20260904211509 100 203 5.0 14.0 0.00 0.02 0.00 42 1011.0
20260904210534 99 124 8.0 14.0 0.00 0.02 0.00 43 1011.1
20260904204412 97 188 4.0 11.0 0.00 0.02 0.00 45 1011.2
20260904203349 98 190 5.0 14.0 0.00 0.02 0.00 43 1011.4
20260904202322 98 132 5.0 14.0 0.00 0.02 0.00 44 1011.5
20260904201335 99 140 7.0 13.0 0.00 0.02 0.00 43 1011.7
20260904200359 98 147 6.0 11.0 0.00 0.02 0.00 44 1011.7
20260904195340 98 126 4.0 12.0 0.00 0.02 0.00 43 1011.9
20260904194341 98 197 6.0 14.0 0.00 0.02 0.00 43 1012.0
20260904192221 97 157 5.0 12.0 0.00 0.02 0.00 45 1012.2
20260904191220 97 181 6.0 13.0 0.00 0.02 0.00 46 1012.3
20260904190155 97 175 5.0 13.0 0.00 0.02 0.00 47 1012.5
20260904185137 96 186 5.0 15.0 0.00 0.02 0.00 48 1012.6
20260904184139 96 164 7.0 15.0 0.00 0.02 0.00 47 1012.8
20260904183147 96 113 3.0 13.0 0.00 0.02 0.00 48 1013.0
20260904180955 95 135 5.0 12.0 0.00 0.02 0.00 51 1013.3
20260904175942 95 180 4.0 11.0 0.00 0.02 0.00 53 1013.5
20260904174942 94 131 7.0 12.0 0.00 0.02 0.00 54 1013.5
20260904173956 93 147 2.0 12.0 0.00 0.02 0.00 55 1013.7
20260904173011 93 178 5.0 12.0 0.00 0.02 0.00 56 1013.8
20260904171948 92 185 7.0 12.0 0.00 0.02 0.00 56 1013.9
20260904164741 91 180 6.0 14.0 0.00 0.02 0.00 58 1014.2
20260904163729 90 227 6.0 14.0 0.00 0.02 0.00 60 1014.4
20260904162732 89 192 5.0 14.0 0.00 0.02 0.00 63 1014.4
20260904161707 89 196 4.0 14.0 0.00 0.02 0.00 64 1014.3
20260904160704 88 202 5.0 12.0 0.00 0.02 0.00 68 1014.3
20260904155656 87 211 5.0 9.0 0.00 0.02 0.00 68 1014.3
20260904153613 86 219 4.0 9.0 0.00 0.02 0.00 74 1014.1
20260904145239 84 151 5.0 11.0 0.00 0.02 0.00 79 1014.2
20260904144207 84 125 6.0 11.0 0.00 0.02 0.00 80 1014.2
20260904143148 83 167 7.0 11.0 0.00 0.02 0.00 81 1014.2
20260904142120 82 182 6.0 11.0 0.00 0.02 0.00 83 1014.2
20260904141143 82 162 6.0 12.0 0.00 0.02 0.00 84 1014.2
20260904140201 81 126 6.0 12.0 0.00 0.02 0.00 85 1014.2
20260904135149 81 171 6.0 10.0 0.00 0.02 0.00 86 1014.2
20260904134144 80 174 4.0 9.0 0.00 0.02 0.00 87 1014.1
20260904132038 79 153 5.0 10.0 0.00 0.02 0.00 89 1013.8
20260904131100 79 153 4.0 10.0 0.00 0.02 0.00 90 1013.8
20260904130116 78 147 3.0 7.0 0.00 0.02 0.00 90 1013.8
20260904125107 77 173 2.0 6.0 0.00 0.02 0.00 90 1013.8
20260904123006 76 136 1.0 7.0 0.00 0.02 0.00 90 1013.6
20260904121942 76 152 2.0 8.0 0.00 0.02 0.00 90 1013.5
20260904120945 76 147 2.0 8.0 0.00 0.02 0.00 90 1013.5
20260904120001 75 173 2.0 7.0 0.00 0.02 0.00 90 1013.4
20260904112705 75 129 2.0 7.0 0.00 0.02 0.00 90 1013.4
20260904111649 74 117 1.0 6.0 0.00 0.02 0.00 90 1013.3
20260904110711 74 144 1.0 8.0 0.00 0.02 0.00 89 1013.2
20260904105655 74 130 0.0 8.0 0.00 0.03 0.00 89 1013.1
20260904104701 74 153 0.0 2.0 0.00 0.03 0.00 89 1013.0
20260904102528 74 135 0.0 2.0 0.00 0.03 0.00 88 1012.9
20260904101512 74 134 1.0 3.0 0.00 0.04 0.00 88 1012.9
20260904100528 74 127 1.0 4.0 0.00 0.04 0.00 88 1012.8
20260904095540 74 128 3.0 4.0 0.00 0.04 0.00 88 1012.8
20260904094508 74 125 1.0 4.0 0.00 0.04 0.00 88 1012.8
20260904093438 74 123 0.0 3.0 0.00 0.04 0.00 87 1012.7
20260904092453 74 125 0.0 4.0 0.00 0.04 0.00 87 1012.8
20260904091446 74 129 2.0 4.0 0.00 0.04 0.00 87 1012.8
20260904090414 74 126 0.0 2.0 0.00 0.04 0.00 86 1012.8
20260904085429 74 138 0.0 0.0 0.00 0.04 0.00 86 1012.8
20260904084435 74 138 0.0 0.0 0.00 0.04 0.00 86 1012.7
20260904083440 74 138 0.0 0.0 0.00 0.04 0.00 86 1012.7
20260904082454 74 138 0.0 0.0 0.00 0.04 0.00 85 1012.7
20260904081454 75 138 0.0 0.0 0.00 0.04 0.00 85 1012.7
20260904080511 75 141 0.0 0.0 0.00 0.04 0.00 84 1012.6
20260904075438 75 142 0.0 0.0 0.00 0.04 0.00 84 1012.7
20260904074444 75 142 0.0 0.0 0.00 0.04 0.00 84 1012.6
20260904071148 75 157 1.0 3.0 0.00 0.04 0.00 83 1012.7
20260904070152 76 127 0.0 2.0 0.00 0.04 0.00 82 1012.8
20260904063958 76 150 0.0 3.0 0.00 0.04 0.00 80 1012.8
20260904062944 77 190 0.0 0.0 0.00 0.04 0.00 79 1012.9
20260904061943 77 190 0.0 0.0 0.00 0.04 0.00 79 1012.9
20260904060958 77 201 0.0 0.0 0.00 0.04 0.00 79 1013.0
20260904060021 77 209 0.0 1.0 0.00 0.04 0.00 79 1013.0
20260904055013 78 184 0.0 2.0 0.00 0.04 0.00 78 1012.9
20260904054007 78 171 2.0 8.0 0.00 0.04 0.00 78 1012.8
20260904052937 78 162 3.0 8.0 0.00 0.04 0.00 78 1012.6
20260904050826 78 175 4.0 8.0 0.00 0.02 0.02 78 1012.7
20260904045838 78 175 3.0 7.0 0.00 0.02 0.02 78 1012.6
20260904044821 79 185 4.0 7.0 0.00 0.02 0.02 78 1012.5
20260904043821 79 182 3.0 6.0 0.00 0.02 0.02 78 1012.7
20260904042818 79 173 3.0 7.0 0.00 0.02 0.02 78 1012.6
20260904041757 79 186 3.0 10.0 0.00 0.02 0.02 78 1012.7
20260904035635 80 170 4.0 7.0 0.00 0.02 0.02 79 1012.6
20260904034610 80 171 3.0 7.0 0.00 0.02 0.02 79 1012.5
20260904033614 80 184 3.0 7.0 0.00 0.02 0.02 79 1012.7
20260904032609 80 170 3.0 7.0 0.00 0.02 0.02 79 1012.7
20260904031627 80 170 2.0 7.0 0.00 0.02 0.02 78 1012.6
20260904030630 80 148 2.0 5.0 0.00 0.02 0.02 78 1012.5
20260904025628 80 140 2.0 6.0 0.00 0.02 0.02 77 1012.2
20260904024636 81 161 2.0 6.0 0.00 0.02 0.02 77 1012.1
20260904022517 81 132 1.0 4.0 0.00 0.02 0.02 77 1011.9
20260904021539 81 140 1.0 4.0 0.00 0.02 0.02 76 1011.8
20260904015331 82 133 1.0 4.0 0.00 0.02 0.02 74 1011.5
20260904014300 82 128 0.0 2.0 0.00 0.02 0.02 73 1011.3
20260904013252 83 124 0.0 2.0 0.00 0.02 0.02 72 1011.1
20260904012258 83 123 0.0 0.0 0.00 0.02 0.02 71 1011.1
20260904004950 85 112 3.0 7.0 0.00 0.02 0.02 68 1011.1